Simultaneous Nadir Overpasses (SNOs) Predictions

Prediction of SNOs between NOAA-15 and METOP-C Satellite Orbit:

Table of predicted SNOs for the next 14.0 days since TLE Epoch: 1/16/2021
Index Date (NOAA-15) Time (NOAA-15) Lat,Lon (NOAA-15) SZA (NOAA-15 ) Date (METOP-C) Time (METOP-C) Lat,Lon (METOP-C) SZA (METOP-C ) Distance(km) Time Diff (sec)
1 01/22/2021 08:53:07 80.98, 83.46 101.98 01/22/2021 08:51:57 80.97, 83.38 101.94 1.93 70
2 01/22/2021 09:43:42 -80.98,-109.18 78.03 01/22/2021 09:42:38 -80.97,-109.19 78.06 0.81 64
3 01/22/2021 10:34:09 80.97, 58.33 101.97 01/22/2021 10:33:18 80.97, 58.26 101.95 1.23 51
4 01/22/2021 11:24:44 -80.97,-134.32 78.04 01/22/2021 11:23:59 -80.98,-134.31 78.05 0.93 45
5 01/22/2021 12:15:12 80.98, 32.82 101.94 01/22/2021 12:14:40 80.97, 32.77 101.92 1.80 32
6 01/22/2021 13:05:47 -80.98,-159.82 78.07 01/22/2021 13:05:21 -80.97,-159.80 78.08 1.09 26
7 01/22/2021 13:56:14 80.98, 7.69 101.93 01/22/2021 13:56:01 80.98, 7.65 101.93 0.66 13
8 01/22/2021 14:46:49 -80.98, 175.04 78.08 01/22/2021 14:46:42 -80.98, 175.08 78.07 0.95 7
9 01/22/2021 15:37:17 80.99, -17.82 101.91 01/22/2021 15:37:23 80.97, -17.84 101.89 1.85 6
10 01/22/2021 16:27:52 -80.99, 149.54 78.11 01/22/2021 16:28:04 -80.98, 149.60 78.11 1.59 12
11 01/22/2021 17:18:19 80.98, -42.95 101.90 01/22/2021 17:18:44 80.98, -42.96 101.90 0.17 25
12 01/22/2021 18:08:54 -80.98, 124.40 78.12 01/22/2021 18:09:25 -80.99, 124.48 78.10 1.31 31
13 01/22/2021 18:59:21 80.98, -68.09 101.88 01/22/2021 19:00:05 80.99, -68.08 101.91 1.59 44
14 01/22/2021 19:49:57 -80.99, 98.90 78.15 01/22/2021 19:50:47 -80.98, 98.99 78.13 2.16 50
15 01/22/2021 20:40:24 80.99, -93.59 101.86 01/22/2021 20:41:27 80.98, -93.57 101.88 0.54 63



Historial Predications of SNOs between NOAA-15 and METOP-C
